FW6687 Weather Reports


time (UTC)temp
F
wind
direction
speed
knots
gust
knots
rain 1hr
in
rain 24hr
in
rain mn
in
humidity
%
barometer
mb
20260502224527 64 102 0.9 2.6 0.00 0.00 0.00 86 1016.8
20260502223029 64 120 1.7 3.5 0.00 0.00 0.00 86 1017.0
20260502221528 64 118 2.6 3.5 0.00 0.00 0.00 85 1016.9
20260502220029 65 120 0.9 3.5 0.00 0.00 0.00 85 1017.0
20260502214536 65 112 0.9 2.6 0.00 0.00 0.00 84 1017.1
20260502213031 65 115 0.9 3.5 0.00 0.00 0.00 85 1017.4
20260502211529 65 87 1.7 4.3 0.00 0.00 0.00 85 1017.4
20260502210031 65 112 2.6 5.2 0.00 0.00 0.00 86 1017.3
20260502204528 65 115 2.6 4.3 0.00 0.00 0.00 86 1017.2
20260502203027 65 110 1.7 5.2 0.00 0.00 0.00 86 1017.1
20260502201529 65 111 0.9 6.1 0.00 0.00 0.00 86 1017.0
20260502200027 65 120 2.6 6.1 0.00 0.00 0.00 85 1016.8
20260502194527 65 101 3.5 6.1 0.00 0.00 0.00 85 1016.6
20260502193029 65 80 2.6 6.1 0.00 0.00 0.00 83 1016.5
20260502191531 66 130 1.7 6.1 0.00 0.00 0.00 83 1016.7
20260502190032 66 114 2.6 6.1 0.00 0.00 0.00 82 1016.6
20260502184533 67 98 2.6 7.8 0.00 0.00 0.00 81 1016.4
20260502183028 67 116 3.5 7.0 0.00 0.00 0.00 81 1016.4
20260502181528 67 77 2.6 7.0 0.00 0.00 0.00 79 1016.5
20260502163032 70 62 4.3 10.4 0.00 0.00 0.00 76 1017.1
20260502161528 70 120 3.5 9.6 0.00 0.00 0.00 75 1017.1
20260502151530 71 124 4.3 9.6 0.00 0.00 0.00 73 1018.0
20260502123030 72 126 6.1 14.8 0.00 0.00 0.00 69 1019.2
20260502121532 72 104 6.1 13.0 0.00 0.00 0.00 69 1019.2
20260502114537 72 115 6.1 10.4 0.00 0.00 0.00 72 1019.7
20260502113029 71 113 5.2 10.4 0.00 0.00 0.00 71 1020.0
20260502111528 72 68 5.2 9.6 0.00 0.00 0.00 71 1020.0
20260502110029 71 103 5.2 11.3 0.00 0.00 0.00 72 1020.1
20260502104527 71 122 5.2 11.3 0.00 0.00 0.00 72 1020.3
20260502103029 70 58 6.1 11.3 0.00 0.00 0.00 73 1020.4
20260502101526 70 110 7.8 12.2 0.00 0.00 0.00 74 1020.5
20260502091528 69 87 6.1 11.3 0.00 0.00 0.00 77 1020.7
20260502071530 67 112 0.9 3.5 0.00 0.00 0.00 80 1020.8
20260502070033 66 107 0.9 1.7 0.00 0.00 0.00 82 1020.7
20260502064543 66 304 0.0 1.7 0.00 0.00 0.00 83 1020.9
20260502063029 66 0 0.0 0.0 0.00 0.00 0.00 83 1020.8
20260502061530 0 0.0 0.0 0.00 0.00 0.00 1020.7
20260502060040 0 0.0 0.0 0.00 0.00 0.00 1020.6
20260502054528 0 0.0 0.0 0.00 0.00 0.00 1020.6
20260502053029 65 0 0.0 0.0 0.00 0.00 0.00 85 1020.7
20260502051532 65 0 0.0 0.9 0.00 0.00 0.00 86 1020.5
20260502050033 65 295 0.0 1.7 0.00 0.00 0.00 86 1020.5
20260502044528 65 309 1.7 2.6 0.00 0.00 0.00 85 1020.4
20260502043034 65 0 0.0 0.0 0.00 0.00 0.00 85 1020.5
20260502041533 65 0 0.0 0.0 0.00 0.00 0.00 85 1020.4
20260502040028 65 0 0.0 0.0 0.00 0.00 0.00 84 1020.7
20260502034532 65 0 0.0 1.7 0.00 0.00 0.00 84 1020.8
20260502033031 65 0 0.0 0.0 0.00 0.00 0.00 84 1020.6
20260502031529 65 0 0.0 0.0 0.00 0.00 0.00 84 1020.8
20260502030030 65 0 0.0 0.0 0.00 0.00 0.00 84 1020.9
20260502024533 65 0 0.0 0.0 0.00 0.00 0.00 85 1020.9
20260502023032 65 0 0.0 0.0 0.00 0.00 0.00 85 1021.0
20260502021530 65 0 0.0 0.0 0.00 0.00 0.00 85 1020.9
20260502020033 65 0 0.0 0.0 0.00 0.00 0.00 85 1021.0
20260502014529 65 0 0.0 0.0 0.00 0.00 0.00 85 1021.0
20260502013030 65 0 0.0 0.0 0.00 0.00 0.00 85 1021.0
20260502011528 65 0 0.0 0.0 0.00 0.00 0.00 85 1021.3
20260502010031 65 0 0.0 0.0 0.00 0.00 0.00 85 1021.4
20260502004536 65 0 0.0 0.0 0.00 0.00 0.00 85 1021.5
20260502003030 65 0 0.0 0.0 0.00 0.00 0.00 85 1021.7
20260502001530 65 0 0.0 1.7 0.00 0.00 0.00 85 1022.0
20260502000029 65 130 0.0 1.7 0.00 0.00 0.00 84 1022.1
20260501234528 65 143 0.0 1.7 0.00 0.00 0.00 85 1022.3
20260501233027 65 0 0.0 2.6 0.00 0.00 0.00 85 1022.4
20260501231530 65 135 0.9 2.6 0.00 0.00 0.00 85 1022.4
20260501230030 65 115 0.9 2.6 0.00 0.00 0.00 85 1022.3